User: anonymous   Login
Location: Prairie Dale
(45.6972°N, 104.5033°W)
Time: 14:15:30
(UTC+00:00)
Language:

M-CUBED/EXP-1 PRIME - Orbit

View from above orbital plane
View from above orbital plane
View from above satellite
View from above satellite

Ground track
Ground track

The orbit data is extracted from the following two-line orbital elements,

1 37855U 11061F   22175.97963636  .00005849  00000-0  25900-3 0  9998
2 37855 101.7095 299.0366 0152705  39.8668 321.3647 15.12527635582848
Epoch (UTC): 24 June 2022 23:30:40
Eccentricity: 0.0152705
inclination: 101.7095°
perigee height: 423 km
apogee height: 634 km
right ascension of ascending node: 299.0366°
argument of perigee: 39.8668°
revolutions per day: 15.12527635
mean anomaly at epoch: 321.3647°
orbit number at epoch: 58284

The dashed part of the orbit path shows where the satellite is in the earth's shadow,  

DLR